Weather History for Hillsdale, MI

Change the Weather History Date:

Wednesday, February 6, 2013

  Actual Average Record
Temperature  
Mean Temperature 19 °F -  
Max Temperature 30 °F 28 °F 51 °F (1965)
Min Temperature 8 °F 10 °F -7 °F (1967)
Degree Days  
Heating Degree Days 46    
Moisture  
Dew Point 14 °F    
Average Humidity 70    
Maximum Humidity 94    
Minimum Humidity 51    
Precipitation  
Precipitation 0.00 in - - ()
Sea Level Pressure  
Sea Level Pressure 30.16 in    
Wind  
Wind Speed 7 mph (South)    
Max Wind Speed 17 mph    
Max Gust Speed 17 mph    
Visibility 10 miles    
Events Snow    
Averages and records for this station are not official NWS values.
T = Trace of Precipitation, MM = Missing Value Source: NWS Daily Summary

Daily Weather History Graph

Daily Weather History Graph

Search for Another Location

Airport:

Trip Planner

Search our weather history database for the weather conditions in past years. The results will help you decide how hot, cold, wet, or windy it might be!

Date:

Astronomy

Feb. 06, 2013 Rise Set
Actual Time 7:45 AM EST 6:00 PM EST
Civil Twilight 7:16 AM EST 6:29 PM EST
Nautical Twilight 6:42 AM EST 7:02 PM EST
Astronomical Twilight 6:10 AM EST 7:35 PM EST
Moon 4:29 AM EST (2/6) 2:15 PM EST (2/6)
Length of Visible Light 11h 13m
Length of Day
10h 15m
Waning Crescent, 17% of the Moon is Illuminated
Feb 6
Waning Crescent
Feb 10
New
Feb 17
First Quarter
Feb 25
Full
Mar 4
Last Quarter

Hourly Weather History & Observations

Time (EST) Temp. Windchill Dew Point Humidity Pressure Visibility Wind Dir Wind Speed Gust Speed Precip Events Conditions
12:15 AM 27.7 °F 15.2 °F 24.6 °F 88% 29.93 in 10.0 mi NNW 17.3 mph - N/A   Overcast
12:35 AM 27.3 °F 16.1 °F 24.3 °F 88% 29.95 in 10.0 mi NW 13.8 mph 17.3 mph N/A   Overcast
12:54 AM 27.0 °F 16.7 °F 23.2 °F 86% 29.97 in 10.0 mi NW 11.5 mph - N/A   Overcast
1:14 AM 26.2 °F 16.4 °F 22.5 °F 86% 29.98 in 7.0 mi NNW 10.4 mph - N/A Snow Light Snow
1:35 AM 25.9 °F 15.3 °F 21.7 °F 84% 29.99 in 10.0 mi NW 11.5 mph - N/A Snow Light Snow
2:15 AM 24.6 °F 13.8 °F 19.2 °F 80% 30.01 in 10.0 mi NNW 11.5 mph - N/A Snow Light Snow
2:35 AM 24.3 °F 12.7 °F 17.1 °F 74% 30.02 in 10.0 mi NNW 12.7 mph - N/A   Overcast
3:15 AM 21.9 °F 15.7 °F 16.0 °F 78% 30.06 in 10.0 mi NNW 4.6 mph - N/A   Overcast
3:34 AM 21.7 °F 17.0 °F 16.2 °F 79% 30.06 in 10.0 mi NNW 3.5 mph - N/A   Overcast
3:54 AM 21.2 °F - 16.0 °F 80% 30.06 in 10.0 mi Calm Calm - N/A   Overcast
4:14 AM 20.1 °F 15.2 °F 15.3 °F 81% 30.08 in 10.0 mi WNW 3.5 mph - N/A   Overcast
4:35 AM 19.9 °F - 15.6 °F 83% 30.08 in 10.0 mi Calm Calm - N/A   Overcast
4:55 AM 17.4 °F - 14.2 °F 87% 30.09 in 10.0 mi Calm Calm - N/A   Scattered Clouds
5:14 AM 14.9 °F - 12.6 °F 90% 30.09 in 10.0 mi Calm Calm - N/A   Clear
5:35 AM 14.7 °F - 12.7 °F 92% 30.10 in 10.0 mi Calm Calm - N/A   Clear
5:54 AM 13.5 °F - 11.5 °F 92% 30.10 in 10.0 mi Calm Calm - N/A   Clear
6:14 AM 13.3 °F 7.3 °F 11.3 °F 92% 30.11 in 7.0 mi NNE 3.5 mph - N/A   Clear
6:35 AM 13.3 °F - 11.1 °F 91% 30.13 in 10.0 mi Calm Calm - N/A   Clear
6:54 AM 9.5 °F - 6.8 °F 89% 30.14 in 5.0 mi Calm Calm - N/A   Clear
7:14 AM 11.3 °F - 9.1 °F 91% 30.15 in 5.0 mi Calm Calm - N/A   Clear
7:35 AM 12.7 °F - 10.6 °F 91% 30.16 in 5.0 mi Calm Calm - N/A   Clear
7:55 AM 8.1 °F - 5.0 °F 87% 30.18 in 7.0 mi Calm Calm - N/A   Clear
8:34 AM 11.7 °F - 9.3 °F 90% 30.19 in 4.0 mi Calm Calm - N/A   Clear
8:55 AM 15.3 °F - 13.3 °F 92% 30.19 in 7.0 mi Calm Calm - N/A   Clear
9:15 AM 18.7 °F 11.9 °F 17.2 °F 94% 30.18 in 10.0 mi South 4.6 mph - N/A   Clear
9:34 AM 19.9 °F - 18.5 °F 94% 30.19 in 10.0 mi Calm Calm - N/A   Clear
10:14 AM 22.8 °F - 18.3 °F 83% 30.20 in 10.0 mi Calm Calm - N/A   Clear
10:35 AM 25.2 °F 20.9 °F 16.3 °F 69% 30.20 in 10.0 mi SSW 3.5 mph - N/A   Clear
10:54 AM 25.9 °F 21.7 °F 15.1 °F 64% 30.22 in 10.0 mi SSW 3.5 mph - N/A   Clear
11:35 AM 27.0 °F 21.6 °F 14.2 °F 59% 30.22 in 10.0 mi South 4.6 mph - N/A   Clear
11:54 AM 27.7 °F - 13.6 °F 56% 30.22 in 10.0 mi Calm Calm - N/A   Clear
12:15 PM 28.0 °F 21.7 °F 13.6 °F 55% 30.22 in 10.0 mi SSW 5.8 mph - N/A   Clear
12:34 PM 28.8 °F 21.7 °F 14.0 °F 54% 30.22 in 10.0 mi SSW 6.9 mph - N/A   Clear
12:54 PM 28.8 °F 22.6 °F 13.5 °F 53% 30.22 in 10.0 mi SW 5.8 mph - N/A   Clear
1:15 PM 28.9 °F 21.9 °F 14.0 °F 54% 30.23 in 10.0 mi SW 6.9 mph - N/A   Clear
1:34 PM 29.3 °F 24.3 °F 14.0 °F 53% 30.22 in 10.0 mi SW 4.6 mph - N/A   Clear
1:55 PM 29.5 °F 23.4 °F 14.4 °F 53% 30.20 in 10.0 mi South 5.8 mph - N/A   Clear
2:14 PM 29.7 °F 24.7 °F 14.7 °F 54% 30.20 in 10.0 mi SSW 4.6 mph - N/A   Clear
2:34 PM 29.7 °F - 14.2 °F 53% 30.20 in 10.0 mi Calm Calm - N/A   Clear
2:55 PM 30.0 °F - 14.0 °F 51% 30.19 in 10.0 mi Calm Calm - N/A   Clear
3:14 PM 30.6 °F 27.1 °F 14.2 °F 51% 30.19 in 10.0 mi SSW 3.5 mph - N/A   Clear
3:35 PM 30.6 °F 25.8 °F 14.5 °F 51% 30.20 in 10.0 mi South 4.6 mph - N/A   Clear
3:55 PM 30.6 °F 23.1 °F 14.5 °F 51% 30.21 in 10.0 mi South 8.1 mph - N/A   Clear
4:14 PM 29.8 °F 23.0 °F 14.7 °F 53% 30.21 in 10.0 mi SSE 6.9 mph - N/A   Clear
4:35 PM 29.1 °F 20.6 °F 14.5 °F 55% 30.21 in 10.0 mi South 9.2 mph - N/A   Clear
4:55 PM 28.8 °F 20.9 °F 14.5 °F 55% 30.21 in 10.0 mi South 8.1 mph - N/A   Clear
5:14 PM 28.4 °F 20.4 °F 14.4 °F 56% 30.21 in 10.0 mi South 8.1 mph - N/A   Clear
5:35 PM 27.7 °F 21.3 °F 14.2 °F 57% 30.22 in 10.0 mi South 5.8 mph - N/A   Clear
5:55 PM 26.6 °F 19.1 °F 13.8 °F 59% 30.22 in 10.0 mi SSE 6.9 mph - N/A   Clear
6:13 PM 25.7 °F 19.0 °F 13.1 °F 59% 30.22 in 10.0 mi SSE 5.8 mph - N/A   Clear
6:35 PM 24.8 °F 19.1 °F 12.9 °F 61% 30.23 in 10.0 mi SSE 4.6 mph - N/A   Clear
6:54 PM 24.1 °F 17.0 °F 12.6 °F 62% 30.23 in 10.0 mi SSE 5.8 mph - N/A   Clear
7:15 PM 23.5 °F 16.4 °F 12.4 °F 62% 30.24 in 10.0 mi SSE 5.8 mph - N/A   Clear
7:34 PM 23.0 °F 17.0 °F 12.2 °F 63% 30.23 in 10.0 mi SE 4.6 mph - N/A   Clear
7:54 PM 23.2 °F 17.2 °F 12.6 °F 64% 30.23 in 10.0 mi SSE 4.6 mph - N/A   Clear
8:15 PM 23.4 °F 16.2 °F 12.6 °F 63% 30.22 in 10.0 mi SE 5.8 mph - N/A   Scattered Clouds
8:35 PM 23.4 °F 17.4 °F 12.7 °F 64% 30.22 in 10.0 mi SE 4.6 mph - N/A   Scattered Clouds
8:55 PM 23.4 °F 16.2 °F 12.7 °F 64% 30.20 in 10.0 mi SE 5.8 mph - N/A   Mostly Cloudy
9:15 PM 23.5 °F 16.4 °F 12.9 °F 64% 30.21 in 10.0 mi SSE 5.8 mph - N/A   Overcast
9:34 PM 23.5 °F 16.4 °F 12.9 °F 64% 30.20 in 10.0 mi SE 5.8 mph - N/A   Overcast
9:55 PM 23.5 °F 13.7 °F 13.1 °F 64% 30.18 in 10.0 mi SE 9.2 mph - N/A   Overcast
10:14 PM 24.1 °F 15.2 °F 13.3 °F 63% 30.17 in 10.0 mi SSE 8.1 mph - N/A   Overcast
10:35 PM 24.3 °F 16.3 °F 13.3 °F 63% 30.17 in 10.0 mi SSE 6.9 mph - N/A   Overcast
10:55 PM 24.4 °F 17.5 °F 13.6 °F 64% 30.18 in 10.0 mi SSE 5.8 mph - N/A   Overcast
11:14 PM 24.4 °F 18.6 °F 13.6 °F 64% 30.19 in 10.0 mi SSE 4.6 mph - N/A   Overcast
11:34 PM 24.3 °F 18.4 °F 13.6 °F 64% 30.19 in 10.0 mi SSE 4.6 mph - N/A   Overcast
11:55 PM 24.4 °F 18.6 °F 14.2 °F 65% 30.21 in 10.0 mi South 4.6 mph - N/A   Overcast